Time,TemperatureF,DewpointF,PressureIn,WindDirection,WindDirectionDegrees,WindSpeedMPH,WindSpeedGustMPH,Humidity,HourlyPrecipIn,Conditions,Clouds,dailyrainin,SoftwareType,DateUTC
2013-07-17 00:01:00,82.7,71.1,30.10,NE,56,0.0,0.0,68,0.00,,SCT070,0.00,VWS V14.01,2013-07-17 04:01:00,
2013-07-17 00:06:00,82.5,70.4,30.09,NE,56,0.0,0.0,67,0.00,,SCT070,0.00,VWS V14.01,2013-07-17 04:06:00,
2013-07-17 00:11:00,82.4,70.3,30.09,NE,56,0.0,0.0,67,0.00,,SCT070,0.00,VWS V14.01,2013-07-17 04:11:00,
2013-07-17 00:16:00,82.4,70.8,30.09,NE,56,0.0,0.0,68,0.00,,SCT070,0.00,VWS V14.01,2013-07-17 04:16:00,
2013-07-17 00:21:00,82.2,70.2,30.09,ENE,57,0.0,0.0,67,0.00,,SCT070,0.00,VWS V14.01,2013-07-17 04:21:00,
2013-07-17 00:26:00,82.2,70.2,30.09,ENE,57,0.0,1.0,67,0.00,,SCT070,0.00,VWS V14.01,2013-07-17 04:26:00,
2013-07-17 00:31:00,82.2,70.2,30.09,NE,56,0.0,0.0,67,0.00,,SCT070,0.00,VWS V14.01,2013-07-17 04:31:00,
2013-07-17 00:36:00,82.2,70.2,30.09,NE,56,0.0,0.0,67,0.00,,SCT070,0.00,VWS V14.01,2013-07-17 04:36:00,
2013-07-17 00:41:00,82.1,70.5,30.09,NE,56,0.0,0.0,68,0.00,,SCT070,0.00,VWS V14.01,2013-07-17 04:41:00,
2013-07-17 00:46:00,82.0,70.4,30.09,NE,56,0.0,0.0,68,0.00,,SCT070,0.00,VWS V14.01,2013-07-17 04:46:00,
2013-07-17 00:51:00,82.0,70.0,30.09,ENE,57,0.0,0.0,68,0.00,,SCT070,0.00,VWS V14.01,2013-07-17 04:51:00,
2013-07-17 00:55:00,81.9,69.9,30.09,ENE,57,0.0,0.0,67,0.00,,SCT070,0.00,VWS V14.01,2013-07-17 04:55:00,
2013-07-17 00:59:00,81.9,70.3,30.09,NE,56,0.0,0.0,68,0.00,,SCT070,0.00,VWS V14.01,2013-07-17 04:59:00,
2013-07-17 01:04:00,81.9,70.3,30.09,NE,56,0.0,0.0,68,0.00,,FEW070,0.00,VWS V14.01,2013-07-17 05:04:00,
2013-07-17 01:09:00,81.9,70.3,30.09,NE,56,0.0,0.0,68,0.00,,FEW070,0.00,VWS V14.01,2013-07-17 05:09:00,
2013-07-17 01:14:00,81.8,70.2,30.09,NE,56,0.0,0.0,68,0.00,,FEW070,0.00,VWS V14.01,2013-07-17 05:14:00,
2013-07-17 01:19:00,81.7,70.6,30.09,ENE,57,0.0,0.0,69,0.00,,FEW070,0.00,VWS V14.01,2013-07-17 05:19:00,
2013-07-17 01:24:00,81.6,70.4,30.09,NE,56,0.0,0.0,69,0.00,,FEW070,0.00,VWS V14.01,2013-07-17 05:24:00,
2013-07-17 01:29:00,81.6,70.4,30.08,ENE,57,0.0,1.0,69,0.00,,FEW070,0.00,VWS V14.01,2013-07-17 05:29:00,
2013-07-17 01:34:00,81.5,70.4,30.09,NE,56,0.0,0.0,69,0.00,,FEW070,0.00,VWS V14.01,2013-07-17 05:34:00,
2013-07-17 01:39:00,81.4,70.3,30.09,NE,56,0.0,0.0,69,0.00,,FEW070,0.00,VWS V14.01,2013-07-17 05:39:00,
2013-07-17 01:44:00,81.3,70.6,30.09,ENE,57,0.0,0.0,70,0.00,,FEW070,0.00,VWS V14.01,2013-07-17 05:44:00,
2013-07-17 01:49:00,81.2,70.5,30.09,ENE,57,0.0,0.0,70,0.00,,FEW070,0.00,VWS V14.01,2013-07-17 05:49:00,
2013-07-17 01:54:00,81.2,70.5,30.09,NE,56,0.0,0.0,70,0.00,,FEW070,0.00,VWS V14.01,2013-07-17 05:54:00,
2013-07-17 01:59:00,81.1,70.4,30.09,NE,56,0.0,0.0,70,0.00,,FEW070,0.00,VWS V14.01,2013-07-17 05:59:00,
2013-07-17 02:04:00,81.0,70.7,30.09,ENE,57,0.0,0.0,71,0.00,,FEW080,0.00,VWS V14.01,2013-07-17 06:04:00,
2013-07-17 02:09:00,81.0,70.7,30.09,NE,56,0.0,0.0,71,0.00,,FEW080,0.00,VWS V14.01,2013-07-17 06:09:00,
2013-07-17 02:14:00,80.9,70.6,30.08,NE,56,0.0,0.0,71,0.00,,FEW080,0.00,VWS V14.01,2013-07-17 06:14:00,
2013-07-17 02:19:00,80.8,70.5,30.08,NE,56,0.0,0.0,71,0.00,,FEW080,0.00,VWS V14.01,2013-07-17 06:19:00,
2013-07-17 02:24:00,80.8,70.5,30.08,ENE,57,0.0,0.0,71,0.00,,FEW080,0.00,VWS V14.01,2013-07-17 06:24:00,
2013-07-17 02:29:00,80.8,70.5,30.08,ENE,57,0.0,0.0,71,0.00,,FEW080,0.00,VWS V14.01,2013-07-17 06:29:00,
2013-07-17 02:34:00,80.7,70.4,30.08,NE,56,0.0,0.0,71,0.00,,FEW080,0.00,VWS V14.01,2013-07-17 06:34:00,
2013-07-17 02:39:00,80.7,70.8,30.09,NE,56,0.0,0.0,72,0.00,,FEW080,0.00,VWS V14.01,2013-07-17 06:39:00,
2013-07-17 02:44:00,80.7,70.4,30.09,NE,56,0.0,0.0,71,0.00,,FEW080,0.00,VWS V14.01,2013-07-17 06:44:00,
2013-07-17 02:49:00,80.6,70.8,30.09,ENE,57,0.0,1.0,72,0.00,,FEW080,0.00,VWS V14.01,2013-07-17 06:49:00,
2013-07-17 02:54:00,80.6,70.8,30.09,NE,56,0.0,1.0,71,0.00,,FEW080,0.00,VWS V14.01,2013-07-17 06:54:00,
2013-07-17 02:59:00,80.5,70.7,30.08,NE,56,0.0,1.0,72,0.00,,FEW080,0.00,VWS V14.01,2013-07-17 06:59:00,
2013-07-17 03:04:00,80.5,70.7,30.08,ENE,57,0.0,0.0,72,0.00,,CLR,0.00,VWS V14.01,2013-07-17 07:04:00,
2013-07-17 03:09:00,80.5,70.7,30.08,NE,56,0.0,0.0,72,0.00,,CLR,0.00,VWS V14.01,2013-07-17 07:09:00,
2013-07-17 03:14:00,80.5,70.7,30.08,NE,56,0.0,0.0,72,0.00,,CLR,0.00,VWS V14.01,2013-07-17 07:14:00,
2013-07-17 03:19:00,80.4,70.6,30.08,NE,56,0.0,0.0,72,0.00,,CLR,0.00,VWS V14.01,2013-07-17 07:19:00,
2013-07-17 03:24:00,80.3,70.1,30.08,North,10,1.0,4.0,71,0.00,,CLR,0.00,VWS V14.01,2013-07-17 07:24:00,
2013-07-17 03:29:00,80.3,70.1,30.08,North,10,0.0,4.0,71,0.00,,CLR,0.00,VWS V14.01,2013-07-17 07:29:00,
2013-07-17 03:34:00,80.3,70.1,30.08,NNE,18,0.0,4.0,71,0.00,,CLR,0.00,VWS V14.01,2013-07-17 07:34:00,
2013-07-17 03:39:00,80.4,70.1,30.08,NNE,18,0.0,4.0,71,0.00,,CLR,0.00,VWS V14.01,2013-07-17 07:39:00,
2013-07-17 03:44:00,80.4,70.1,30.08,NNE,18,0.0,0.0,72,0.00,,CLR,0.00,VWS V14.01,2013-07-17 07:44:00,
2013-07-17 03:48:00,80.3,70.1,30.08,NNE,18,0.0,1.0,71,0.00,,CLR,0.00,VWS V14.01,2013-07-17 07:48:00,
2013-07-17 03:53:00,80.3,70.5,30.08,NNE,18,0.0,1.0,72,0.00,,CLR,0.00,VWS V14.01,2013-07-17 07:53:00,
2013-07-17 03:58:00,80.2,70.8,30.08,NNE,18,0.0,1.0,73,0.00,,CLR,0.00,VWS V14.01,2013-07-17 07:58:00,
2013-07-17 04:03:00,80.2,70.7,30.08,NNE,18,0.0,0.0,73,0.00,,FEW065,0.00,VWS V14.01,2013-07-17 08:03:00,
2013-07-17 04:08:00,80.1,70.7,30.09,NNE,18,0.0,0.0,73,0.00,,FEW065,0.00,VWS V14.01,2013-07-17 08:08:00,
2013-07-17 04:13:00,79.9,70.5,30.08,NNE,18,0.0,0.0,73,0.00,,FEW065,0.00,VWS V14.01,2013-07-17 08:13:00,
2013-07-17 04:18:00,79.8,70.4,30.08,NNE,18,0.0,0.0,73,0.00,,FEW065,0.00,VWS V14.01,2013-07-17 08:18:00,
2013-07-17 04:23:00,79.7,70.7,30.08,NNE,18,0.0,0.0,74,0.00,,FEW065,0.00,VWS V14.01,2013-07-17 08:23:00,
2013-07-17 04:28:00,79.6,70.6,30.09,NNE,18,0.0,0.0,74,0.00,,FEW065,0.00,VWS V14.01,2013-07-17 08:28:00,
2013-07-17 04:33:00,79.5,70.9,30.09,NNE,18,0.0,0.0,75,0.00,,FEW065,0.00,VWS V14.01,2013-07-17 08:33:00,
2013-07-17 04:38:00,79.3,70.7,30.08,NNE,18,0.0,0.0,75,0.00,,FEW065,0.00,VWS V14.01,2013-07-17 08:38:00,
2013-07-17 04:43:00,79.2,70.2,30.08,NNE,18,0.0,0.0,74,0.00,,FEW065,0.00,VWS V14.01,2013-07-17 08:43:00,
2013-07-17 04:48:00,79.1,70.5,30.09,NNE,18,0.0,0.0,75,0.00,,FEW065,0.00,VWS V14.01,2013-07-17 08:48:00,
2013-07-17 04:53:00,79.0,70.4,30.09,NNE,18,0.0,0.0,75,0.00,,FEW065,0.00,VWS V14.01,2013-07-17 08:53:00,
2013-07-17 04:58:00,78.9,70.7,30.09,NNE,18,0.0,0.0,76,0.00,,FEW065,0.00,VWS V14.01,2013-07-17 08:58:00,
2013-07-17 11:01:00,0.0,73.1,30.12,East,90,0.0,2.0,0,1.65,,FEW070,0.00,VWS V14.01,2013-07-17 15:01:00,
2013-07-17 11:06:00,91.1,73.7,30.11,NNE,25,2.0,5.0,57,0.00,,FEW070,0.00,VWS V14.01,2013-07-17 15:06:00,
2013-07-17 11:11:00,90.8,72.9,30.12,NNE,21,2.0,4.0,56,0.00,,FEW070,0.00,VWS V14.01,2013-07-17 15:11:00,
2013-07-17 11:16:00,90.8,71.9,30.11,ENE,71,0.0,4.0,54,0.00,,FEW070,0.00,VWS V14.01,2013-07-17 15:16:00,
2013-07-17 11:21:00,91.0,72.1,30.11,ENE,57,0.0,4.0,54,0.00,,FEW070,0.00,VWS V14.01,2013-07-17 15:21:00,
2013-07-17 11:26:00,91.4,73.0,30.11,NE,42,0.0,4.0,55,0.00,,FEW070,0.00,VWS V14.01,2013-07-17 15:26:00,
2013-07-17 11:31:00,91.6,74.2,30.11,NNE,22,1.0,3.0,57,0.00,,FEW070,0.00,VWS V14.01,2013-07-17 15:31:00,
2013-07-17 11:36:00,91.7,74.3,30.11,ENE,73,0.0,3.0,57,0.00,,FEW070,0.00,VWS V14.01,2013-07-17 15:36:00,
2013-07-17 11:41:00,91.8,73.3,30.11,WNW,295,0.0,1.0,55,0.00,,FEW070,0.00,VWS V14.01,2013-07-17 15:41:00,
2013-07-17 11:46:00,91.8,73.3,30.11,NE,47,0.0,9.0,55,0.00,,FEW070,0.00,VWS V14.01,2013-07-17 15:46:00,
2013-07-17 11:51:00,92.0,74.6,30.11,NNE,25,0.0,1.0,57,0.00,,FEW070,0.00,VWS V14.01,2013-07-17 15:51:00,
2013-07-17 11:56:00,92.1,73.1,30.10,NE,37,0.0,9.0,54,0.00,,FEW070,0.00,VWS V14.01,2013-07-17 15:56:00,
2013-07-17 12:01:00,92.1,73.1,30.10,NE,41,0.0,3.0,54,0.00,,SCT250,0.00,VWS V14.01,2013-07-17 16:01:00,
2013-07-17 12:06:00,92.2,73.2,30.10,NNE,23,0.0,4.0,54,0.00,,SCT250,0.00,VWS V14.01,2013-07-17 16:06:00,
2013-07-17 12:11:00,92.2,73.2,30.10,ENE,58,0.0,2.0,54,0.00,,SCT250,0.00,VWS V14.01,2013-07-17 16:11:00,
2013-07-17 12:16:00,91.8,73.3,30.10,NE,42,0.0,4.0,55,0.00,,SCT250,0.00,VWS V14.01,2013-07-17 16:16:00,
2013-07-17 12:21:00,92.1,73.6,30.09,ENE,78,0.0,1.0,55,0.00,,SCT250,0.00,VWS V14.01,2013-07-17 16:21:00,
2013-07-17 12:26:00,92.5,73.4,30.10,ENE,71,0.0,1.0,54,0.00,,SCT250,0.00,VWS V14.01,2013-07-17 16:26:00,
2013-07-17 12:31:00,92.4,72.8,30.10,NE,45,0.0,3.0,53,0.00,,SCT250,0.00,VWS V14.01,2013-07-17 16:31:00,
2013-07-17 12:36:00,92.4,72.8,30.09,NNE,18,1.0,5.0,53,0.00,,SCT250,0.00,VWS V14.01,2013-07-17 16:36:00,
2013-07-17 12:41:00,92.4,73.3,30.09,NE,39,0.0,0.0,54,0.00,,SCT250,0.00,VWS V14.01,2013-07-17 16:41:00,
2013-07-17 12:46:00,92.4,73.3,30.09,NNE,26,0.0,6.0,54,0.00,,SCT250,0.00,VWS V14.01,2013-07-17 16:46:00,
2013-07-17 12:51:00,92.4,74.0,30.10,NNE,20,1.0,1.0,55,0.00,,SCT250,0.00,VWS V14.01,2013-07-17 16:51:00,
2013-07-17 12:56:00,92.9,73.8,30.09,East,87,0.0,4.0,54,0.00,,SCT250,0.00,VWS V14.01,2013-07-17 16:56:00,
2013-07-17 13:01:00,93.2,73.5,30.09,NE,39,0.0,1.0,53,0.00,,SCT060,0.00,VWS V14.01,2013-07-17 17:01:00,
2013-07-17 13:06:00,93.2,72.4,30.09,NNW,332,0.0,4.0,51,0.00,,SCT060,0.00,VWS V14.01,2013-07-17 17:06:00,
2013-07-17 13:11:00,93.0,73.3,30.09,NNE,29,4.0,5.0,53,0.00,,SCT060,0.00,VWS V14.01,2013-07-17 17:11:00,
2013-07-17 13:16:00,93.1,72.3,30.09,NNE,22,0.0,5.0,51,0.00,,SCT060,0.00,VWS V14.01,2013-07-17 17:16:00,
2013-07-17 13:21:00,93.4,73.2,30.09,ENE,70,0.0,3.0,52,0.00,,SCT060,0.00,VWS V14.01,2013-07-17 17:21:00,
2013-07-17 13:26:00,93.9,72.4,30.08,ESE,117,0.0,3.0,50,0.00,,SCT060,0.00,VWS V14.01,2013-07-17 17:26:00,
2013-07-17 13:31:00,94.0,71.9,30.08,ENE,63,0.0,4.0,49,0.00,,SCT060,0.00,VWS V14.01,2013-07-17 17:31:00,
2013-07-17 13:36:00,94.0,70.7,30.08,NNE,18,0.0,7.0,47,0.00,,SCT060,0.00,VWS V14.01,2013-07-17 17:36:00,
2013-07-17 13:41:00,94.3,71.6,30.08,NNE,19,0.0,1.0,48,0.00,,SCT060,0.00,VWS V14.01,2013-07-17 17:41:00,
2013-07-17 13:46:00,94.6,73.1,30.08,NNE,28,0.0,5.0,50,0.00,,SCT060,0.00,VWS V14.01,2013-07-17 17:46:00,
2013-07-17 13:51:00,94.8,73.9,30.08,SE,144,0.0,1.0,51,0.00,,SCT060,0.00,VWS V14.01,2013-07-17 17:51:00,
2013-07-17 13:56:00,94.7,73.2,30.07,SSW,213,0.0,5.0,50,0.00,,SCT060,0.00,VWS V14.01,2013-07-17 17:56:00,
2013-07-17 14:01:00,94.6,73.1,30.08,SW,222,0.0,0.0,50,0.00,,SCT065,0.00,VWS V14.01,2013-07-17 18:01:00,
2013-07-17 14:06:00,94.4,72.9,30.07,SSE,168,0.0,1.0,50,0.00,,SCT065,0.00,VWS V14.01,2013-07-17 18:06:00,
2013-07-17 14:11:00,94.6,72.5,30.07,ENE,65,0.0,1.0,49,0.00,,SCT065,0.00,VWS V14.01,2013-07-17 18:11:00,
2013-07-17 14:16:00,94.5,72.4,30.07,NE,42,0.0,4.0,49,0.00,,SCT065,0.00,VWS V14.01,2013-07-17 18:16:00,
2013-07-17 14:21:00,94.6,71.9,30.07,NE,42,0.0,0.0,48,0.00,,SCT065,0.00,VWS V14.01,2013-07-17 18:21:00,
2013-07-17 14:26:00,94.7,71.3,30.06,NE,43,1.0,1.0,47,0.00,,SCT065,0.00,VWS V14.01,2013-07-17 18:26:00,
2013-07-17 14:31:00,94.7,72.6,30.07,ESE,107,0.0,1.0,49,0.00,,SCT065,0.00,VWS V14.01,2013-07-17 18:31:00,
2013-07-17 14:36:00,94.7,72.0,30.06,ESE,107,0.0,1.0,48,0.00,,SCT065,0.00,VWS V14.01,2013-07-17 18:36:00,
2013-07-17 14:41:00,94.4,74.2,30.06,ESE,107,0.0,0.0,52,0.00,,SCT065,0.00,VWS V14.01,2013-07-17 18:41:00,
2013-07-17 14:46:00,94.2,73.9,30.06,WSW,237,4.0,9.0,52,0.00,,SCT065,0.00,VWS V14.01,2013-07-17 18:46:00,
2013-07-17 14:51:00,93.7,73.9,30.06,NW,309,0.0,5.0,53,0.00,,SCT065,0.00,VWS V14.01,2013-07-17 18:51:00,
2013-07-17 14:56:00,92.9,73.8,30.06,WSW,255,2.0,7.0,54,0.00,,SCT065,0.00,VWS V14.01,2013-07-17 18:56:00,
2013-07-17 15:01:00,92.4,73.3,30.06,SW,221,1.0,2.0,54,0.00,,SCT065,0.00,VWS V14.01,2013-07-17 19:01:00,
2013-07-17 15:06:00,92.4,73.8,30.06,SW,223,0.0,4.0,55,0.00,,SCT065,0.00,VWS V14.01,2013-07-17 19:06:00,
2013-07-17 15:11:00,92.4,73.9,30.06,SSW,211,1.0,2.0,55,0.00,,SCT065,0.00,VWS V14.01,2013-07-17 19:11:00,
2013-07-17 15:16:00,92.3,73.8,30.06,SSW,192,0.0,2.0,55,0.00,,SCT065,0.00,VWS V14.01,2013-07-17 19:16:00,
2013-07-17 15:21:00,92.2,73.2,30.05,SSW,192,0.0,0.0,54,0.00,,SCT065,0.00,VWS V14.01,2013-07-17 19:21:00,
2013-07-17 15:26:00,92.1,73.1,30.05,SSE,155,0.0,3.0,54,0.00,,SCT065,0.00,VWS V14.01,2013-07-17 19:26:00,
2013-07-17 15:31:00,92.0,73.5,30.05,WSW,245,0.0,4.0,55,0.00,,SCT065,0.00,VWS V14.01,2013-07-17 19:31:00,
2013-07-17 15:36:00,92.2,74.2,30.05,SSW,212,1.0,7.0,56,0.00,,SCT065,0.00,VWS V14.01,2013-07-17 19:36:00,
2013-07-17 15:41:00,92.2,74.2,30.05,South,190,0.0,1.0,56,0.00,,SCT065,0.00,VWS V14.01,2013-07-17 19:41:00,
2013-07-17 15:46:00,91.9,74.5,30.05,WSW,237,3.0,5.0,57,0.00,,SCT065,0.00,VWS V14.01,2013-07-17 19:46:00,
2013-07-17 15:51:00,91.4,74.7,30.04,SSW,201,0.0,2.0,58,0.00,,SCT065,0.00,VWS V14.01,2013-07-17 19:51:00,
2013-07-17 15:56:00,91.3,74.5,30.05,SSE,163,0.0,6.0,58,0.00,,SCT065,0.00,VWS V14.01,2013-07-17 19:56:00,
2013-07-17 16:01:00,91.1,73.8,30.04,SW,227,0.0,2.0,57,0.00,,SCT065,0.00,VWS V14.01,2013-07-17 20:01:00,
2013-07-17 16:06:00,90.9,73.6,30.03,WSW,255,0.0,5.0,57,0.00,,SCT065,0.00,VWS V14.01,2013-07-17 20:06:00,
2013-07-17 16:11:00,90.6,74.3,30.04,West,262,0.0,1.0,59,0.00,,SCT065,0.00,VWS V14.01,2013-07-17 20:11:00,
2013-07-17 16:16:00,90.9,73.7,30.04,SW,225,0.0,6.0,57,0.00,,SCT065,0.00,VWS V14.01,2013-07-17 20:16:00,
2013-07-17 16:21:00,91.3,73.9,30.04,WNW,283,1.0,4.0,57,0.00,,SCT065,0.00,VWS V14.01,2013-07-17 20:21:00,
2013-07-17 16:26:00,91.7,74.8,30.03,South,174,1.0,5.0,58,0.00,,SCT065,0.00,VWS V14.01,2013-07-17 20:26:00,
2013-07-17 16:31:00,91.8,74.9,30.03,South,182,0.0,6.0,57,0.00,,SCT065,0.00,VWS V14.01,2013-07-17 20:31:00,
2013-07-17 16:36:00,91.7,74.3,30.03,WSW,247,1.0,6.0,57,0.00,,SCT065,0.00,VWS V14.01,2013-07-17 20:36:00,
2013-07-17 16:41:00,91.7,74.3,30.03,SSW,209,7.0,11.0,57,0.00,,SCT065,0.00,VWS V14.01,2013-07-17 20:41:00,
2013-07-17 16:46:00,91.6,74.2,30.03,WNW,285,3.0,11.0,57,0.00,,SCT065,0.00,VWS V14.01,2013-07-17 20:46:00,
2013-07-17 16:51:00,91.4,74.0,30.02,WSW,244,1.0,7.0,57,0.00,,SCT065,0.00,VWS V14.01,2013-07-17 20:51:00,
2013-07-17 16:56:00,91.2,73.3,30.03,SW,220,0.0,8.0,56,0.00,,SCT065,0.00,VWS V14.01,2013-07-17 20:56:00,
2013-07-17 17:01:00,91.2,73.8,30.03,SW,217,0.0,4.0,57,0.00,,SCT065,0.00,VWS V14.01,2013-07-17 21:01:00,
2013-07-17 17:06:00,91.1,73.8,30.02,SW,236,0.0,8.0,57,0.00,,SCT065,0.00,VWS V14.01,2013-07-17 21:06:00,
2013-07-17 17:11:00,90.9,73.6,30.02,WSW,244,0.0,1.0,57,0.00,,SCT065,0.00,VWS V14.01,2013-07-17 21:11:00,
2013-07-17 17:16:00,90.9,73.0,30.02,WSW,240,2.0,7.0,56,0.00,,SCT065,0.00,VWS V14.01,2013-07-17 21:16:00,
2013-07-17 17:21:00,90.7,73.3,30.03,SW,230,3.0,3.0,57,0.00,,SCT065,0.00,VWS V14.01,2013-07-17 21:21:00,
2013-07-17 17:26:00,90.3,72.5,30.03,SSW,210,1.0,8.0,56,0.00,,SCT065,0.00,VWS V14.01,2013-07-17 21:26:00,
2013-07-17 17:31:00,89.8,72.0,30.03,WSW,249,4.0,5.0,56,0.00,,SCT065,0.00,VWS V14.01,2013-07-17 21:31:00,
2013-07-17 17:36:00,89.5,72.3,30.03,SW,224,0.0,7.0,57,0.00,,SCT065,0.00,VWS V14.01,2013-07-17 21:36:00,
2013-07-17 17:41:00,89.5,72.3,30.03,WNW,284,0.0,3.0,57,0.00,,SCT065,0.00,VWS V14.01,2013-07-17 21:41:00,
2013-07-17 17:46:00,89.6,72.4,30.02,SW,230,1.0,5.0,57,0.00,,SCT065,0.00,VWS V14.01,2013-07-17 21:46:00,
2013-07-17 17:51:00,89.7,73.0,30.02,SSW,196,0.0,4.0,58,0.00,,SCT065,0.00,VWS V14.01,2013-07-17 21:51:00,
2013-07-17 17:56:00,89.5,72.8,30.02,WNW,295,0.0,7.0,58,0.00,,SCT065,0.00,VWS V14.01,2013-07-17 21:56:00,
2013-07-17 18:01:00,89.4,72.7,30.02,WSW,248,1.0,7.0,58,0.00,,FEW065,0.00,VWS V14.01,2013-07-17 22:01:00,
2013-07-17 18:06:00,89.2,73.0,30.02,SW,224,1.0,7.0,59,0.00,,FEW065,0.00,VWS V14.01,2013-07-17 22:06:00,
2013-07-17 18:11:00,89.2,72.5,30.02,SSW,193,0.0,3.0,58,0.00,,FEW065,0.00,VWS V14.01,2013-07-17 22:11:00,
2013-07-17 18:16:00,89.2,73.0,30.02,WSW,239,0.0,5.0,59,0.00,,FEW065,0.00,VWS V14.01,2013-07-17 22:16:00,
2013-07-17 18:21:00,89.0,71.8,30.02,West,260,0.0,7.0,57,0.00,,FEW065,0.00,VWS V14.01,2013-07-17 22:21:00,
2013-07-17 18:26:00,88.9,72.2,30.02,SW,225,3.0,7.0,58,0.00,,FEW065,0.00,VWS V14.01,2013-07-17 22:26:00,
2013-07-17 18:31:00,88.8,73.1,30.02,SW,235,4.0,4.0,60,0.00,,FEW065,0.00,VWS V14.01,2013-07-17 22:31:00,
2013-07-17 18:36:00,88.6,72.9,30.02,WNW,283,0.0,6.0,60,0.00,,FEW065,0.00,VWS V14.01,2013-07-17 22:36:00,
2013-07-17 18:41:00,88.4,73.2,30.02,WSW,239,0.0,1.0,60,0.00,,FEW065,0.00,VWS V14.01,2013-07-17 22:41:00,
2013-07-17 18:46:00,88.1,73.0,30.02,West,262,2.0,6.0,61,0.00,,FEW065,0.00,VWS V14.01,2013-07-17 22:46:00,
2013-07-17 18:51:00,87.9,73.7,30.02,SW,220,0.0,3.0,63,0.00,,FEW065,0.00,VWS V14.01,2013-07-17 22:51:00,
2013-07-17 18:56:00,87.6,72.8,30.02,West,277,1.0,4.0,62,0.00,,FEW065,0.00,VWS V14.01,2013-07-17 22:56:00,
2013-07-17 19:01:00,87.3,73.2,30.02,SSW,209,0.0,0.0,63,0.00,,FEW065,0.00,VWS V14.01,2013-07-17 23:01:00,
2013-07-17 19:06:00,87.3,73.2,30.02,SSW,208,3.0,8.0,63,0.00,,FEW065,0.00,VWS V14.01,2013-07-17 23:06:00,
2013-07-17 19:11:00,87.1,73.0,30.02,West,262,3.0,3.0,63,0.00,,FEW065,0.00,VWS V14.01,2013-07-17 23:11:00,
2013-07-17 19:16:00,86.7,72.1,30.02,WSW,249,0.0,5.0,62,0.00,,FEW065,0.00,VWS V14.01,2013-07-17 23:16:00,
2013-07-17 19:21:00,86.5,72.4,30.03,WSW,252,4.0,4.0,63,0.00,,FEW065,0.00,VWS V14.01,2013-07-17 23:21:00,
2013-07-17 19:26:00,86.3,72.1,30.02,WSW,252,2.0,6.0,63,0.00,,FEW065,0.00,VWS V14.01,2013-07-17 23:26:00,
2013-07-17 19:31:00,86.0,72.4,30.02,SW,217,0.0,4.0,64,0.00,,FEW065,0.00,VWS V14.01,2013-07-17 23:31:00,
2013-07-17 19:36:00,85.9,72.7,30.02,SW,217,0.0,4.0,65,0.00,,FEW065,0.00,VWS V14.01,2013-07-17 23:36:00,
2013-07-17 19:41:00,85.7,72.1,30.02,WSW,251,3.0,6.0,64,0.00,,FEW065,0.00,VWS V14.01,2013-07-17 23:41:00,
2013-07-17 19:46:00,85.4,72.2,30.02,WSW,248,1.0,6.0,65,0.00,,FEW065,0.00,VWS V14.01,2013-07-17 23:46:00,
2013-07-17 19:51:00,85.1,72.5,30.02,SSW,199,0.0,3.0,66,0.00,,FEW065,0.00,VWS V14.01,2013-07-17 23:51:00,
2013-07-17 19:56:00,84.8,72.7,30.02,WSW,240,2.0,5.0,67,0.00,,FEW065,0.00,VWS V14.01,2013-07-17 23:56:00,
2013-07-17 20:01:00,84.6,72.4,30.02,WSW,245,0.0,0.0,67,0.00,,FEW070,0.00,VWS V14.01,2013-07-18 00:01:00,
2013-07-17 20:06:00,84.4,72.2,30.02,SW,233,0.0,6.0,67,0.00,,FEW070,0.00,VWS V14.01,2013-07-18 00:06:00,
2013-07-17 20:11:00,84.2,72.5,30.02,West,260,0.0,5.0,68,0.00,,FEW070,0.00,VWS V14.01,2013-07-18 00:11:00,
2013-07-17 20:16:00,84.0,72.7,30.02,South,171,0.0,6.0,69,0.00,,FEW070,0.00,VWS V14.01,2013-07-18 00:16:00,
2013-07-17 20:21:00,83.9,73.1,30.02,WSW,239,0.0,6.0,70,0.00,,FEW070,0.00,VWS V14.01,2013-07-18 00:21:00,
2013-07-17 20:26:00,83.7,73.3,30.02,WSW,247,0.0,6.0,71,0.00,,FEW070,0.00,VWS V14.01,2013-07-18 00:26:00,
2013-07-17 20:31:00,83.7,73.3,30.01,SW,220,3.0,7.0,71,0.00,,FEW070,0.00,VWS V14.01,2013-07-18 00:31:00,
2013-07-17 20:36:00,83.4,73.4,30.02,WSW,257,0.0,8.0,72,0.00,,FEW070,0.00,VWS V14.01,2013-07-18 00:36:00,
2013-07-17 20:41:00,83.3,73.3,30.02,SW,234,1.0,3.0,72,0.00,,FEW070,0.00,VWS V14.01,2013-07-18 00:41:00,
2013-07-17 20:46:00,83.1,73.1,30.01,West,266,0.0,6.0,72,0.00,,FEW070,0.00,VWS V14.01,2013-07-18 00:46:00,
2013-07-17 20:51:00,83.0,73.1,30.02,SSW,213,0.0,3.0,72,0.00,,FEW070,0.00,VWS V14.01,2013-07-18 00:51:00,
2013-07-17 20:56:00,83.0,73.1,30.01,SW,225,0.0,5.0,72,0.00,,FEW070,0.00,VWS V14.01,2013-07-18 00:56:00,
2013-07-17 21:01:00,83.0,72.6,30.01,SW,225,0.0,0.0,71,0.00,,SCT250,0.00,VWS V14.01,2013-07-18 01:01:00,
2013-07-17 21:06:00,83.1,72.7,30.01,SW,216,1.0,5.0,71,0.00,,SCT250,0.00,VWS V14.01,2013-07-18 01:06:00,
2013-07-17 21:11:00,83.0,72.6,30.01,SSW,208,0.0,4.0,71,0.00,,SCT250,0.00,VWS V14.01,2013-07-18 01:11:00,
2013-07-17 21:16:00,83.0,72.6,30.01,WSW,242,0.0,4.0,71,0.00,,SCT250,0.00,VWS V14.01,2013-07-18 01:16:00,
2013-07-17 21:21:00,83.0,72.6,30.01,WSW,242,0.0,4.0,71,0.00,,SCT250,0.00,VWS V14.01,2013-07-18 01:21:00,
2013-07-17 21:26:00,83.0,72.6,30.01,SSW,209,0.0,5.0,71,0.00,,SCT250,0.00,VWS V14.01,2013-07-18 01:26:00,
2013-07-17 21:31:00,83.0,72.6,30.02,SW,216,0.0,0.0,72,0.00,,SCT250,0.00,VWS V14.01,2013-07-18 01:31:00,
2013-07-17 21:36:00,82.8,72.9,30.02,SW,233,0.0,3.0,72,0.00,,SCT250,0.00,VWS V14.01,2013-07-18 01:36:00,
2013-07-17 21:41:00,82.8,72.9,30.02,SSW,200,0.0,1.0,72,0.00,,SCT250,0.00,VWS V14.01,2013-07-18 01:41:00,
2013-07-17 21:46:00,82.7,72.8,30.02,SW,214,0.0,1.0,72,0.00,,SCT250,0.00,VWS V14.01,2013-07-18 01:46:00,
2013-07-17 21:51:00,82.6,72.7,30.02,SW,218,0.0,0.0,72,0.00,,SCT250,0.00,VWS V14.01,2013-07-18 01:51:00,
2013-07-17 21:56:00,82.5,73.0,30.02,WSW,237,1.0,3.0,73,0.00,,SCT250,0.00,VWS V14.01,2013-07-18 01:56:00,
2013-07-17 22:01:00,82.5,73.0,30.02,SW,225,0.0,3.0,73,0.00,,FEW075,0.00,VWS V14.01,2013-07-18 02:01:00,
2013-07-17 22:06:00,82.5,72.9,30.02,SW,225,0.0,3.0,73,0.00,,FEW075,0.00,VWS V14.01,2013-07-18 02:06:00,
2013-07-17 22:11:00,82.4,72.9,30.02,SW,225,0.0,1.0,73,0.00,,FEW075,0.00,VWS V14.01,2013-07-18 02:11:00,
2013-07-17 22:16:00,82.4,72.9,30.02,SW,220,0.0,5.0,73,0.00,,FEW075,0.00,VWS V14.01,2013-07-18 02:16:00,
2013-07-17 22:21:00,82.3,72.8,30.02,SW,220,0.0,4.0,73,0.00,,FEW075,0.00,VWS V14.01,2013-07-18 02:21:00,
2013-07-17 22:26:00,82.3,73.2,30.02,SSW,200,0.0,5.0,74,0.00,,FEW075,0.00,VWS V14.01,2013-07-18 02:26:00,
2013-07-17 22:31:00,82.2,73.1,30.02,SW,216,0.0,0.0,74,0.00,,FEW075,0.00,VWS V14.01,2013-07-18 02:31:00,
2013-07-17 22:36:00,82.2,73.1,30.02,SW,216,0.0,4.0,74,0.00,,FEW075,0.00,VWS V14.01,2013-07-18 02:36:00,
2013-07-17 22:41:00,82.0,73.3,30.01,SW,222,0.0,0.0,75,0.00,,FEW075,0.00,VWS V14.01,2013-07-18 02:41:00,
2013-07-17 22:46:00,82.0,73.7,30.02,SW,222,0.0,0.0,76,0.00,,FEW075,0.00,VWS V14.01,2013-07-18 02:46:00,
2013-07-17 22:51:00,82.0,73.7,30.02,SSW,208,0.0,4.0,76,0.00,,FEW075,0.00,VWS V14.01,2013-07-18 02:51:00,
2013-07-17 22:56:00,81.9,73.6,30.01,SW,215,0.0,4.0,76,0.00,,FEW075,0.00,VWS V14.01,2013-07-18 02:56:00,
2013-07-17 23:01:00,81.9,73.6,30.01,SSW,196,0.0,0.0,76,0.00,,FEW250,0.00,VWS V14.01,2013-07-18 03:01:00,
2013-07-17 23:06:00,82.0,74.1,30.02,West,265,0.0,2.0,77,0.00,,FEW250,0.00,VWS V14.01,2013-07-18 03:06:00,
2013-07-17 23:11:00,81.8,73.9,30.01,SW,223,0.0,4.0,77,0.00,,FEW250,0.00,VWS V14.01,2013-07-18 03:11:00,
2013-07-17 23:16:00,81.8,73.9,30.01,WSW,254,0.0,4.0,77,0.00,,FEW250,0.00,VWS V14.01,2013-07-18 03:16:00,
2013-07-17 23:21:00,81.8,74.2,30.01,WSW,254,0.0,5.0,78,0.00,,FEW250,0.00,VWS V14.01,2013-07-18 03:21:00,
2013-07-17 23:26:00,81.7,73.8,30.01,SW,233,2.0,5.0,77,0.00,,FEW250,0.00,VWS V14.01,2013-07-18 03:26:00,
2013-07-17 23:31:00,81.9,73.9,30.01,WSW,249,3.0,4.0,77,0.00,,FEW250,0.00,VWS V14.01,2013-07-18 03:31:00,
2013-07-17 23:36:00,81.8,73.5,30.01,WSW,242,1.0,7.0,76,0.00,,FEW250,0.00,VWS V14.01,2013-07-18 03:36:00,
2013-07-17 23:41:00,81.8,73.5,30.01,WSW,241,3.0,6.0,76,0.00,,FEW250,0.00,VWS V14.01,2013-07-18 03:41:00,
2013-07-17 23:46:00,81.8,73.6,30.01,WSW,238,3.0,6.0,76,0.00,,FEW250,0.00,VWS V14.01,2013-07-18 03:46:00,
2013-07-17 23:51:00,81.9,73.2,30.01,WSW,244,1.0,4.0,75,0.00,,FEW250,0.00,VWS V14.01,2013-07-18 03:51:00,
2013-07-17 23:56:00,81.9,73.2,30.00,WSW,255,0.0,5.0,75,0.00,,FEW250,0.00,VWS V14.01,2013-07-18 03:56:00,